• In Portugal
  • List of Countries
  • For 7 days
  • Water Temperature
  • Satellite Maps
  • Weather Map
  • Weather Widgets
  • user-avatar
    Login

    Hourly Weather Chişinău

    Today, 16 December, Saturday

    Time Temperature Precipitation Wind Pressure Humidity
    00:00 +6°C° 0 mm 5 mps 746 mmHg 79%
    01:00 +6°C° 0 mm 5 mps 745 mmHg 82%
    02:00 +6°C° 0 mm 5 mps 745 mmHg 86%
    03:00 +5°C° 0 mm 6 mps 744 mmHg 87%
    04:00 +7°C° 0 mm 6 mps 743 mmHg 88%
    05:00 +6°C° 0 mm 7 mps 743 mmHg 89%
    06:00 +6°C° 0 mm 7 mps 742 mmHg 88%
    07:00 +6°C° 0 mm 7 mps 742 mmHg 86%
    08:00 +6°C° 0 mm 7 mps 742 mmHg 85%
    09:00 +7°C° 0 mm 8 mps 742 mmHg 79%
    10:00 +9°C° 0 mm 8 mps 742 mmHg 73%
    11:00 +10°C° 0 mm 8 mps 742 mmHg 67%
    12:00 +11°C° 0 mm 7 mps 742 mmHg 64%
    13:00 +12°C° 0 mm 7 mps 742 mmHg 60%
    14:00 +13°C° 0 mm 6 mps 742 mmHg 56%
    15:00 +13°C° 0 mm 6 mps 742 mmHg 59%
    16:00 +12°C° 0 mm 5 mps 743 mmHg 61%
    17:00 +11°C° 0 mm 4 mps 743 mmHg 64%
    18:00 +11°C° 0 mm 4 mps 744 mmHg 66%
    19:00 +10°C° 0 mm 4 mps 745 mmHg 67%
    20:00 +10°C° 0 mm 4 mps 746 mmHg 69%
    21:00 +8°C° 0.1 mm 4 mps 747 mmHg 70%
    22:00 +7°C° 0.1 mm 4 mps 747 mmHg 71%
    23:00 +6°C° 0.1 mm 5 mps 748 mmHg 72%

    Tomorrow, 17 December, Sunday

    Time Temperature Precipitation Wind Pressure Humidity
    00:00 +5°C° 0.3 mm 5 mps 748 mmHg 73%
    01:00 +5°C° 0.3 mm 4 mps 749 mmHg 74%
    02:00 +4°C° 0.3 mm 4 mps 750 mmHg 74%
    03:00 +3°C° 0.2 mm 5 mps 750 mmHg 75%
    04:00 +3°C° 0.2 mm 5 mps 749 mmHg 75%
    05:00 +2°C° 0.2 mm 5 mps 749 mmHg 76%
    06:00 +2°C° 0.4 mm 5 mps 750 mmHg 77%
    07:00 +2°C° 0.4 mm 5 mps 750 mmHg 78%
    08:00 +2°C° 0.4 mm 5 mps 750 mmHg 79%
    09:00 +2°C° 0.1 mm 5 mps 750 mmHg 78%
    10:00 +2°C° 0.1 mm 6 mps 751 mmHg 77%
    11:00 +2°C° 0.1 mm 6 mps 751 mmHg 75%
    12:00 +2°C° 0 mm 6 mps 751 mmHg 74%
    13:00 +2°C° 0 mm 6 mps 751 mmHg 72%
    14:00 +3°C° 0 mm 6 mps 751 mmHg 71%
    15:00 +2°C° 0 mm 6 mps 751 mmHg 72%
    16:00 +2°C° 0 mm 6 mps 751 mmHg 73%
    17:00 +1°C° 0 mm 5 mps 752 mmHg 74%
    18:00 +1°C° 0 mm 5 mps 752 mmHg 73%
    19:00 +1°C° 0 mm 6 mps 753 mmHg 73%
    20:00 +1°C° 0 mm 6 mps 753 mmHg 72%
    21:00 +1°C° 0 mm 6 mps 753 mmHg 72%
    22:00 -1°C° 0 mm 6 mps 754 mmHg 72%
    23:00 -1°C° 0 mm 6 mps 754 mmHg 71%

    Day after tomorrow, 18 December, Monday

    Time Temperature Precipitation Wind Pressure Humidity
    00:00 -1°C° 0 mm 6 mps 754 mmHg 71%
    01:00 -1°C° 0 mm 6 mps 754 mmHg 71%
    02:00 -1°C° 0 mm 6 mps 755 mmHg 70%
    03:00 0°C° 0 mm 5 mps 755 mmHg 71%
    04:00 -1°C° 0 mm 5 mps 755 mmHg 71%
    05:00 -1°C° 0 mm 5 mps 755 mmHg 72%
    06:00 -1°C° 0 mm 5 mps 756 mmHg 73%
    07:00 -1°C° 0 mm 4 mps 756 mmHg 74%
    08:00 -1°C° 0 mm 4 mps 756 mmHg 75%
    09:00 -1°C° 0 mm 4 mps 757 mmHg 73%
    10:00 -1°C° 0 mm 5 mps 757 mmHg 70%
    11:00 0°C° 0 mm 5 mps 757 mmHg 68%
    12:00 0°C° 0 mm 5 mps 757 mmHg 66%
    13:00 0°C° 0 mm 5 mps 757 mmHg 64%
    14:00 0°C° 0 mm 5 mps 757 mmHg 63%
    15:00 0°C° 0 mm 4 mps 757 mmHg 65%
    16:00 +1°C° 0 mm 3 mps 757 mmHg 67%
    17:00 0°C° 0 mm 3 mps 757 mmHg 70%
    18:00 0°C° 0 mm 3 mps 758 mmHg 72%
    19:00 -1°C° 0 mm 2 mps 758 mmHg 74%
    20:00 -1°C° 0 mm 2 mps 758 mmHg 76%
    21:00 -1°C° 0 mm 2 mps 759 mmHg 77%
    22:00 -1°C° 0 mm 2 mps 759 mmHg 78%
    23:00 -1°C° 0 mm 2 mps 759 mmHg 79%

    19 December, Tuesday

    Time Temperature Precipitation Wind Pressure Humidity
    00:00 -1°C° 0 mm 3 mps 760 mmHg 79%
    01:00 -1°C° 0 mm 3 mps 760 mmHg 80%
    02:00 -1°C° 0 mm 3 mps 760 mmHg 80%
    03:00 -1°C° 0 mm 3 mps 760 mmHg 79%
    04:00 -3°C° 0 mm 4 mps 761 mmHg 78%
    05:00 -3°C° 0 mm 4 mps 761 mmHg 77%
    06:00 -3°C° 0 mm 4 mps 761 mmHg 76%
    07:00 -3°C° 0 mm 4 mps 762 mmHg 75%
    08:00 -3°C° 0 mm 4 mps 762 mmHg 74%
    09:00 -2°C° 0 mm 4 mps 762 mmHg 71%
    10:00 -2°C° 0 mm 5 mps 763 mmHg 68%
    11:00 -1°C° 0 mm 5 mps 763 mmHg 66%
    12:00 -1°C° 0 mm 5 mps 763 mmHg 65%
    13:00 -1°C° 0 mm 5 mps 763 mmHg 64%
    14:00 -1°C° 0 mm 5 mps 764 mmHg 63%
    15:00 -1°C° 0 mm 5 mps 764 mmHg 65%
    16:00 -2°C° 0 mm 4 mps 764 mmHg 68%
    17:00 -3°C° 0 mm 4 mps 764 mmHg 70%
    18:00 -3°C° 0 mm 4 mps 765 mmHg 69%
    19:00 -3°C° 0 mm 4 mps 765 mmHg 68%
    20:00 -3°C° 0 mm 4 mps 766 mmHg 67%
    21:00 -3°C° 0 mm 4 mps 766 mmHg 66%
    22:00 -3°C° 0 mm 4 mps 766 mmHg 65%
    23:00 -3°C° 0 mm 4 mps 766 mmHg 64%

    20 December, Wednesday

    Time Temperature Precipitation Wind Pressure Humidity
    00:00 -3°C° 0 mm 4 mps 766 mmHg 66%
    01:00 -2°C° 0 mm 3 mps 766 mmHg 68%
    02:00 -2°C° 0 mm 3 mps 766 mmHg 70%
    03:00 -2°C° 0 mm 3 mps 766 mmHg 71%
    04:00 -2°C° 0 mm 3 mps 766 mmHg 72%
    05:00 -2°C° 0 mm 3 mps 766 mmHg 73%
    06:00 -2°C° 0 mm 3 mps 766 mmHg 73%
    07:00 -2°C° 0 mm 3 mps 767 mmHg 73%
    08:00 -3°C° 0 mm 4 mps 767 mmHg 73%
    09:00 -3°C° 0 mm 4 mps 767 mmHg 69%
    10:00 -2°C° 0 mm 4 mps 767 mmHg 65%
    11:00 -2°C° 0 mm 4 mps 767 mmHg 61%
    12:00 -2°C° 0 mm 4 mps 767 mmHg 59%
    13:00 -1°C° 0 mm 4 mps 766 mmHg 57%
    14:00 -1°C° 0 mm 4 mps 766 mmHg 56%
    15:00 -2°C° 0 mm 4 mps 766 mmHg 59%
    16:00 -2°C° 0 mm 3 mps 766 mmHg 62%
    17:00 -2°C° 0 mm 2 mps 766 mmHg 66%
    18:00 -2°C° 0 mm 2 mps 766 mmHg 67%
    19:00 -3°C° 0 mm 2 mps 766 mmHg 68%
    20:00 -3°C° 0 mm 2 mps 766 mmHg 69%
    21:00 -3°C° 0 mm 2 mps 765 mmHg 68%
    22:00 -3°C° 0 mm 2 mps 765 mmHg 68%
    23:00 -3°C° 0 mm 2 mps 765 mmHg 67%

    21 December, Thursday

    Time Temperature Precipitation Wind Pressure Humidity
    00:00 -3°C° 0 mm 2 mps 764 mmHg 65%
    01:00 -3°C° 0 mm 2 mps 764 mmHg 64%
    02:00 -3°C° 0 mm 2 mps 763 mmHg 62%
    03:00 -4°C° 0 mm 3 mps 763 mmHg 61%
    04:00 -2°C° 0 mm 3 mps 762 mmHg 60%
    05:00 -2°C° 0 mm 3 mps 761 mmHg 59%
    06:00 -2°C° 0 mm 3 mps 761 mmHg 59%
    07:00 -2°C° 0 mm 3 mps 761 mmHg 59%
    08:00 -2°C° 0 mm 3 mps 760 mmHg 60%
    09:00 -3°C° 0.1 mm 4 mps 760 mmHg 62%
    10:00 -2°C° 0.1 mm 4 mps 759 mmHg 65%
    11:00 -2°C° 0.1 mm 4 mps 759 mmHg 68%
    12:00 -2°C° 0.4 mm 5 mps 758 mmHg 74%
    13:00 -1°C° 0.4 mm 5 mps 758 mmHg 79%
    14:00 -2°C° 0.4 mm 6 mps 757 mmHg 85%
    15:00 -1°C° 0.1 mm 6 mps 757 mmHg 84%
    16:00 0°C° 0.1 mm 7 mps 757 mmHg 84%
    17:00 0°C° 0.1 mm 7 mps 757 mmHg 83%
    18:00 0°C° 0 mm 7 mps 757 mmHg 83%
    19:00 0°C° 0 mm 7 mps 758 mmHg 83%
    20:00 0°C° 0 mm 7 mps 758 mmHg 83%
    21:00 -1°C° 0 mm 7 mps 758 mmHg 84%
    22:00 -1°C° 0 mm 6 mps 758 mmHg 85%
    23:00 -1°C° 0 mm 5 mps 758 mmHg 86%
    Show more